Regional Weather Roundup
Issued by NWS

Home | Current Version | Previous Version | Text Only | Print | Product List | Glossary Off
Versions: 1 2 3 4 5 6 7 8 9 10 11 12 13 14 15 16 17 18 19 20 21 22 23 24 25 26 27 28 29 30 31 32 33 34 35 36 37 38 39 40 41 42 43 44 45 46 47 48 49 50

000
ASUS43 KOAX 020610
RWRNE

WEATHER ROUNDUP FOR NEBRASKA
NATIONAL WEATHER SERVICE OMAHA NE
1200 AM CST FRI DEC 02 2016

NOTES: SATELLITE DATA IS BEING USED TO AUGMENT CLOUD COVER ABOVE
       12000 FEET.
       "FAIR" INDICATES FEW OR NO CLOUDS BELOW 12,000 FEET WITH NO
       SIGNIFICANT WEATHER AND/OR OBSTRUCTIONS TO VISIBILITY.

  * THESE STATIONS DO NOT REPORT WEATHER SUCH AS RAIN...SNOW OR FOG.

NEZ001>004-019>022-054>056-020700-
NEBRASKA PANHANDLE

CITY           SKY/WX    TMP DP  RH WIND       PRES   REMARKS
SCOTTSBLUFF    PTCLDY    20  14  77 NW7       30.06R WCI  11
6HR MIN TEMP:  20; 6HR MAX TEMP:  33;

ALLIANCE       CLOUDY    20  15  81 W3        30.04R
6HR MIN TEMP:  13; 6HR MAX TEMP:  32;

CHADRON        CLOUDY    27  20  75 S3        30.06R
6HR MIN TEMP:  27; 6HR MAX TEMP:  36;

KIMBALL        CLOUDY    22  19  89 NW9       30.03R WCI  12
SIDNEY         CLEAR     23  17  78 W13       30.05R WCI  11
6HR MIN TEMP:  14; 6HR MAX TEMP:  28;

$$

NEZ057>060-069>072-079>082-020700-
SOUTHWEST NEBRASKA

CITY           SKY/WX    TMP DP  RH WIND       PRES   REMARKS
NORTH PLATTE   CLOUDY    21  15  78 CALM      30.06R
6HR MIN TEMP:  18; 6HR MAX TEMP:  30;

IMPERIAL       CLEAR     23  10  57 W7        30.07R WCI  15
6HR MIN TEMP:  20; 6HR MAX TEMP:  36;

LEXINGTON      CLEAR     20  17  85 NW6       30.08R WCI  13
MCCOOK         CLEAR     20  13  74 W6        30.07R WCI  12
6HR MIN TEMP:  19; 6HR MAX TEMP:  39;

OGALLALA       CLEAR     15  11  85 W5        30.06R WCI   7
$$

NEZ005>010-023>029-035>040-094-020700-
NORTH CENTRAL NEBRASKA

CITY           SKY/WX    TMP DP  RH WIND       PRES   REMARKS
VALENTINE      CLOUDY    22  19  89 NW3       30.08R
6HR MIN TEMP:  22; 6HR MAX TEMP:  29;

AINSWORTH      CLOUDY    25  23  94 W3        30.08R
BROKEN BOW     PTCLDY    20  18  92 CALM      30.07R
6HR MIN TEMP:  20; 6HR MAX TEMP:  35;

O`NEILL        CLOUDY    25  24  96 W5        30.09R WCI  19
ORD            MOCLDY    24  20  84 CALM      30.08R
6HR MIN TEMP:  24; 6HR MAX TEMP:  33;

THEDFORD       CLOUDY    24  21  89 CALM      30.07R
$$

NEZ041-046>049-061>064-073>077-083>087-020700-
SOUTH CENTRAL NEBRASKA

CITY           SKY/WX    TMP DP  RH WIND       PRES   REMARKS
GRAND ISLAND   PTCLDY    25  22  88 CALM      30.10R
6HR MIN TEMP:  23; 6HR MAX TEMP:  33;

AURORA         MOCLDY    24  22  94 CALM      30.10R
HASTINGS       CLEAR     21  17  84 CALM      30.10R
6HR MIN TEMP:  21; 6HR MAX TEMP:  34;

HEBRON         CLEAR     21  19  89 CALM      30.11R
HOLDREGE       CLEAR     20  15  82 CALM      30.07R
KEARNEY *      CLEAR     27  18  69 CALM      30.08R
YORK           MOCLDY    25  23  93 CALM      30.11R
$$

NEZ011>018-030>034-042>045-020700-
NORTHEAST NEBRASKA

CITY           SKY/WX    TMP DP  RH WIND       PRES   REMARKS
NORFOLK        CLOUDY    30  25  81 W5        30.09R WCI  25
6HR MIN TEMP:  28; 6HR MAX TEMP:  31;

ALBION         CLOUDY    28  24  87 CALM      30.10R
BLAIR          CLOUDY    32  28  86 CALM      30.09R
FREMONT        CLOUDY    31  28  88 CALM      30.11R
TEKAMAH        CLOUDY    33  28  81 NW6       30.11R WCI  28
6HR MIN TEMP:  32; 6HR MAX TEMP:  35;

WAYNE          CLOUDY    32  30  91 NW3       30.09R
$$

NEZ050>053-065>068-078-088>093-020700-
SOUTHEAST NEBRASKA

CITY           SKY/WX    TMP DP  RH WIND       PRES   REMARKS
LINCOLN        CLOUDY    27  23  85 CALM      30.13R
6HR MIN TEMP:  23; 6HR MAX TEMP:  35;

OMAHA EPPLEY   CLOUDY    33  26  75 NW3       30.11R
6HR MIN TEMP:  33; 6HR MAX TEMP:  37;

BEATRICE       CLEAR     21  19  90 CALM      30.12R
FALLS CITY     CLEAR     26  22  84 CALM      30.12R
6HR MIN TEMP:  25; 6HR MAX TEMP:  37;

NEBRASKA CITY  MOCLDY    30  24  77 SW5       30.11R WCI  25
PLATTSMOUTH    CLOUDY    30  23  75 W5        30.10R WCI  25
$$

NEZ044-045-051>053-067-020700-
OMAHA AREA

CITY           SKY/WX    TMP DP  RH WIND       PRES   REMARKS
OMAHA EPPLEY   CLOUDY    33  26  75 NW3       30.11R
6HR MIN TEMP:  33; 6HR MAX TEMP:  37;

BLAIR          CLOUDY    32  28  86 CALM      30.09R
FREMONT        CLOUDY    31  28  88 CALM      30.11R
MILLARD        PTCLDY    33  28  83 CALM      30.12R
OFFUTT AFB     PTCLDY    29  29  96 W5        30.11R WCI  24
PLATTSMOUTH    CLOUDY    30  23  75 W5        30.10R WCI  25
WAHOO          CLOUDY    30  26  86 CALM      30.11R
$$




USA.gov is the U.S. government's official web portal to all federal, state and local government web resources and services.